SCP
0 0 0 0 0 0 0 0 0 0 0 0 0 0 0 0 0 0 0 0 0 0 0 0 0 0 0 0 0 0 0 0 0 0 0 0 0 0 0 0 0 0 0
0 0 0 0 0 0 0 0 0 0 0 0 0 0 0 0 0 0 0 0 0 0 0 0 0 0 0 0 0 0 0 0 0 0 0 0 0 0 0 0 0 0 0
0 0 0 0 0 0 0 0 0 0 0 0 0 0 0 0 0 0 0 0 0 0 0 0 0 0 0 0 0 0 0 0 0 0 0 0 0 0 0 0 0 0 0
0 0 0 0 0 0 0 0 0 0 0 0 0 0 0 0 0 0 0 0 0 0 0 0 0 0 0 0 0 0 0 0 0 0 0 0 0 0 0 0 0 0 0
0 0 0 0 0 0 0 0 0 -0 0 0 0 0 0 0 0 0 0 0 0 0 0 0 0 0 0 0 0 0 0 0 0 0 0 0 0 0 0 0 0 0 0
0 0 0 0 -0 -0 0 0 0 -0 -0 0 0 0 0 0 0 0 0 0 0 0 0 0 0 0 0 0 0 0 0 0 0 0 0 0 0 0 0 0 0 0 0
0 0 -0 -0 -0 -0 -0 -0 -0 -0 -0 -0 -0 -0 -0 -0 0 0 0 -0 0 0 0 -0 0 0 0 0 0 0 0 0 0 0 0 0 0 0 0 0 0 0 0
0 0 -0 -0 -0 -0 -0 -0 -0 -0 -0 -0 -0 -0 -0 -0 -0 -0 -0 -0 -0 -0 -0 -0 -0 -0 0 0 0 0 0 0 0 0 0 0 0 0 0 0 0 0 0
0 0 -0 -0 -0 -0 -0 -0 -0 -0 -0 -0 -0 -0 -0 -0 -0 -0 -0 -0 -0 -0 -0 -0 -0 0 0 -0 0 0 0 0 0 0 0 0 0 0 0 0 0 0 0
0 0 -0 -0 -0 -0 -0 -0 -0 -0 -0 -0 -0 -0 -0 -0 -0 -0 -0 -0 -0 -0 -0 -0 -0 0 0 0 0 0 0 0 0 0 0 0 0 0 0 0 0 0 0
0 0 0 0 0 -0 -0 -0 -0 -0 -0 -0 -0 -0 -0 -0 -0 -0 -0 -0 -0 -0 -0 -0 0 -0 -0 0 0 -0 0 0 0 0 0 0 0 0 0 0 0 0 0
0 0 0 0 0 0 0 0 0 0 0 0 0 0 0 0 0 0 0 0 -0 -0 0 -0 0 -0 0 -0 -0 0 0 0 0 0 0 0 0 0 0 0 0 0 0
0 0 0 0 0 0 0 0 0 0 0 0 0 0 0 0 0 0 0 0 0 0 -0 0 0 0 0 0 0 -0 0 0 0 0 0 0 0 0 0 0 0 0 0
0 0 0 0 0 0 0 0 0 0 0 0 0 0 0 0 0 0 0 0 0 0 0 0 0 0 0 0 0 0 0 0 0 0 0 0 0 0 0 0 0 0 0
0 0 0 0 0 0 0 0 0 0 0 0 0 0 0 0 0 0 0 0 0 0 0 0 0 0 0 0 0 0 0 0 -0 0 0 0 0 0 0 0 0 0 0
0 0 0 0 0 0 0 0 0 0 0 0 0 0 0 0 0 0 0 0 0 0 0 0 0 0 0 0 0 0 0 0 0 0 0 0 0 0 0 0 0 0 0
0 0 0 0 0 0 0 0 0 0 0 0 0 0 0 0 0 0 0 0 0 0 0 0 0 0 0 0 0 0 0 0 0 0 0 0 0 0 0 0 0 0 0
0 0 0 0 0 0 0 0 0 0 0 0 0 0 0 0 0 0 0 0 0 0 0 0 0 0 0 0 0 0 0 0 0 0 0 0 0 0 0 0 0 0 0
0 0 0 0 0 0 0 0 0 0 0 0 0 0 0 0 0 0 0 0 0 0 0 0 0 0 0 0 0 0 0 0 0 0 0 0 0 0 0 0 0 0 0
0 0 0 0 0 0 0 0 0 0 0 0 0 0 0 0 0 0 0 0 0 0 0 0 0 0 0 0 0 0 0 0 0 0 0 0 0 0 0 0 0 0 0
0 0 0 0 0 0 0 0 0 0 0 0 0 0 0 0 0 0 0 0 0 0 0 0 0 0 0 0 0 0 0 0 0 0 0 0 0 0 0 0 0 0 0
0 0 0 0 0 0 0 0 0 0 0 0 0 0 0 0 0 0 0 0 0 0 0 0 0 0 0 0 0 0 0 0 0 0 0 0 0 0 0 0 0 0 0
0 0 0 0 0 0 0 0 0 0 0 0 0 0 0 0 0 0 0 0 0 0 0 0 0 0 0 0 0 0 0 0 0 0 0 0 0 0 0 0 0 0 0
0 0 0 0 0 0 0 0 0 0 0 0 0 0 0 0 0 0 0 0 0 0 0 0 0 0 0 0 0 0 -0 -0 -0 -0 0 0 0 0 0 0 0 0 0
0 0 0 0 0 0 0 0 0 0 0 0 0 0 0 0 0 0 0 0 0 0 0 0 0 0 0 0 0 0 0 0 -0 -0 0 0 -0 -0 0 0 0 0 0
0 0 0 0 0 0 0 0 0 0 0 0 0 0 0 0 0 0 0 0 0 0 -0 0 0 0 0 0 0 0 0 0 -0 -0 0 0 -0 0 -0 0 0 0 0
Wind_Speed_500mb
27 27 27 28 29 29 28 27 26 24 23 22 21 21 21 19 17 18 19 26 28 31 36 43 50 55 54 54 45 36 44 45 46 52 55 53 52 55 55 54 51 48 48
35 35 35 36 36 38 37 36 35 34 34 32 28 24 20 16 15 16 19 20 24 29 31 35 39 45 49 58 59 59 47 52 50 51 43 57 58 58 59 60 59 56 53
37 38 39 40 42 43 41 38 38 38 37 38 37 29 21 16 15 19 25 26 27 27 30 36 43 42 40 50 55 57 58 49 54 52 56 45 52 61 60 63 66 64 59
39 39 41 44 44 44 46 46 46 46 47 47 45 38 27 22 21 20 32 35 40 42 41 43 45 48 51 53 54 51 49 47 48 37 42 58 49 43 60 62 66 70 65
38 39 42 44 45 49 50 53 55 56 55 53 52 43 33 33 13 36 45 42 47 52 59 58 56 54 54 59 61 57 54 55 57 55 42 44 53 49 57 61 66 72 75
37 38 41 44 48 50 53 57 59 61 63 63 59 52 37 31 12 65 42 63 48 69 72 71 69 64 60 59 61 61 59 54 64 65 55 49 56 59 55 50 54 60 76
35 38 41 43 48 52 56 58 60 66 70 74 75 70 45 20 15 64 53 56 79 80 80 82 80 77 74 69 64 63 65 65 61 64 63 73 65 69 72 70 50 52 34
33 36 39 42 43 45 49 55 61 63 66 73 76 64 45 28 89 8 87 68 87 88 88 86 86 85 82 80 76 71 68 67 68 69 68 67 70 75 75 72 74 72 56
31 34 37 39 42 45 49 53 57 60 62 62 64 59 36 35 95 36 30 96 98 102 96 91 87 86 86 83 80 76 72 72 71 72 73 71 71 72 78 79 79 81 82
27 31 35 40 44 44 47 51 52 55 58 62 61 55 50 54 49 64 87 99 106 105 105 104 102 91 85 85 81 78 78 76 76 75 76 76 71 71 74 66 71 82 84
26 30 35 39 42 45 47 49 49 50 53 54 58 60 61 60 57 61 80 114 109 105 104 102 98 101 97 89 85 83 81 80 79 76 74 72 71 73 70 70 68 68 76
25 31 35 39 42 44 46 47 49 49 50 51 53 55 56 60 65 70 84 100 100 112 112 107 103 101 98 96 91 84 80 82 79 73 70 70 70 73 72 70 70 68 67
27 30 34 37 40 44 46 48 50 51 51 52 55 56 57 61 66 72 81 94 91 111 99 111 108 102 102 97 94 88 86 80 78 70 70 73 76 74 71 70 69 69 68
30 34 36 39 42 45 48 50 53 54 54 54 55 57 62 66 71 75 78 80 94 83 102 109 110 106 97 97 93 94 86 82 75 74 82 78 76 72 69 70 69 70 68
35 38 41 42 45 47 51 54 56 59 58 58 59 61 66 72 76 80 83 80 65 84 99 123 100 108 100 98 95 86 88 83 81 80 78 76 72 70 70 69 68 69 68
39 42 43 46 48 50 53 56 59 61 64 62 64 67 70 76 82 84 85 86 82 66 79 112 116 107 95 93 82 85 83 82 83 81 74 70 69 70 70 71 70 67 70
43 45 47 49 53 54 56 60 61 65 68 67 65 70 74 78 84 87 89 89 88 70 68 105 109 106 94 88 86 81 81 86 86 78 76 81 74 70 71 72 71 72 71
48 50 51 54 56 58 59 63 66 67 71 70 69 72 77 81 84 87 88 88 86 81 66 80 106 109 95 86 90 86 72 81 91 95 87 69 74 76 78 74 72 73 71
51 52 55 57 58 60 62 65 68 71 71 70 73 76 80 82 86 86 86 86 82 75 73 75 98 103 93 91 71 73 101 91 84 80 74 83 89 81 72 70 68 66 66
53 55 57 59 61 63 66 68 70 72 72 75 76 79 81 83 84 85 83 79 70 74 78 81 87 94 82 98 89 77 80 75 105 105 101 91 88 83 74 75 75 71 70
56 57 58 61 63 66 68 70 70 73 76 78 78 80 82 83 82 78 62 68 72 77 80 81 85 96 91 76 58 87 103 100 99 89 99 96 86 93 88 80 76 68 63
57 58 60 63 66 67 68 66 68 73 75 77 80 82 83 84 83 74 61 63 63 70 80 83 88 78 103 93 85 85 92 92 106 78 89 112 87 102 98 93 80 69 66
55 59 62 65 66 66 65 66 68 71 75 76 78 82 84 83 79 79 82 66 68 62 65 76 87 86 95 85 86 103 97 90 90 85 97 122 106 111 96 90 79 67 61
57 61 63 64 66 64 63 66 67 71 74 75 78 77 79 81 77 67 70 76 81 84 77 68 64 85 94 90 85 91 99 111 117 107 88 105 96 104 93 82 75 74 72
59 60 62 62 63 63 63 65 68 72 73 76 76 76 74 75 66 61 70 83 84 80 59 85 81 73 78 89 85 87 87 82 90 87 87 89 88 81 82 93 95 80 55
58 60 60 61 62 62 61 65 66 66 72 76 80 81 63 60 60 64 70 77 81 93 96 83 88 91 83 82 77 68 68 69 75 77 78 59 85 85 64 70 54 54 66
Wind_Direction_500mb
57 49 44 38 34 32 25 23 18 15 12 2 351 343 339 338 334 325 319 304 294 290 291 292 285 280 279 276 277 287 282 290 289 287 284 281 282 286 289 292 292 289 287
56 52 50 44 37 33 29 25 21 19 16 13 8 359 355 352 349 341 333 331 324 306 306 304 298 288 286 283 267 268 271 273 282 282 301 278 278 279 281 285 287 288 287
53 47 44 40 36 30 25 24 22 18 17 20 14 9 5 355 348 353 349 345 336 332 323 308 303 300 302 289 285 278 267 267 268 273 282 295 278 274 276 279 280 282 283
49 43 41 38 33 28 24 19 16 15 15 15 17 14 8 353 350 343 350 346 343 339 334 330 323 313 312 307 303 300 292 280 273 278 282 273 279 277 268 272 274 277 276
45 38 36 32 27 24 23 21 15 11 9 10 12 15 2 354 11 8 348 345 342 341 337 334 329 325 317 308 303 306 302 292 282 272 279 285 276 280 265 265 268 270 273
40 36 32 28 24 20 19 19 17 11 9 6 3 8 10 5 18 348 345 348 347 344 342 338 333 329 326 318 309 307 306 301 294 286 279 276 269 268 276 268 261 266 269
35 31 28 25 22 18 16 14 15 13 7 4 359 360 10 12 354 341 343 349 342 344 343 342 339 336 330 326 321 315 308 305 302 293 295 279 277 274 267 267 277 258 266
31 26 24 22 19 16 14 13 13 15 14 10 9 5 353 358 339 4 340 343 341 342 342 341 340 338 334 330 327 322 315 310 305 303 303 294 285 275 275 274 267 271 266
26 22 19 16 14 11 12 11 10 9 10 11 12 16 1 338 342 330 333 337 340 340 339 337 336 337 335 330 325 322 318 314 309 306 305 303 295 291 282 275 275 270 267
17 15 11 11 9 7 6 6 5 3 2 2 1 2 358 348 341 327 321 335 333 335 335 335 335 332 329 326 324 321 319 317 314 310 305 303 303 299 293 300 291 273 272
2 2 1 1 360 359 358 356 354 353 353 352 351 348 345 342 340 323 319 328 328 330 329 329 330 328 326 323 321 319 318 314 312 311 308 305 304 300 303 300 299 295 280
350 349 350 349 349 348 349 348 346 344 343 343 341 339 337 334 330 326 320 322 321 326 326 327 329 326 324 320 317 314 312 312 310 309 308 307 306 305 303 300 297 296 294
334 334 335 336 336 337 338 339 337 336 335 334 334 331 328 326 325 324 323 320 316 322 322 323 327 324 321 317 314 315 313 309 307 306 306 303 303 304 301 299 298 295 293
316 320 324 325 327 327 328 328 331 330 328 328 327 325 323 324 324 324 322 320 317 314 318 319 322 320 317 313 311 310 311 311 307 304 304 303 303 301 299 297 296 295 293
309 310 312 314 315 317 318 320 323 324 321 321 320 320 321 323 323 322 322 321 309 304 309 319 313 317 312 310 308 310 312 311 309 309 306 305 302 300 298 297 294 294 291
298 301 303 304 306 307 309 312 314 317 317 316 315 316 319 322 323 322 321 319 315 297 296 314 313 309 308 310 308 311 310 309 307 309 307 307 301 299 297 296 294 291 289
295 297 299 300 300 301 304 305 308 312 312 311 311 313 317 319 320 319 318 317 315 306 294 306 308 309 309 314 316 313 310 310 309 310 308 306 300 299 296 293 291 290 288
287 291 294 297 297 298 300 303 305 306 309 309 309 311 314 316 317 317 316 315 314 313 302 299 308 311 310 310 314 314 311 309 307 306 307 301 299 299 301 296 290 289 287
287 288 291 295 296 296 298 300 301 302 305 307 307 308 312 314 315 315 315 315 314 314 311 301 300 305 305 312 308 302 304 308 306 310 304 301 302 305 301 295 293 291 289
287 289 290 293 295 296 296 298 298 300 305 307 305 307 310 312 313 315 314 314 314 308 303 300 299 302 303 303 310 308 310 305 301 304 306 307 307 307 302 299 297 296 294
287 289 290 294 294 294 296 297 298 303 304 303 302 305 308 311 312 312 306 305 304 304 303 301 299 301 302 306 307 305 301 305 305 308 310 307 309 307 306 304 302 302 298
288 289 291 292 292 293 294 296 300 300 301 302 304 305 307 309 312 312 301 299 296 298 298 299 301 300 298 305 305 304 303 303 303 308 305 301 302 303 305 306 308 305 299
288 289 289 290 291 293 295 297 298 299 298 301 303 304 307 311 313 312 309 303 303 301 296 297 295 298 301 304 304 304 301 298 296 299 296 295 297 299 303 303 303 300 296
287 287 289 292 293 295 296 297 297 297 299 301 302 305 309 311 312 309 310 308 303 304 309 302 296 296 297 301 300 297 296 292 291 295 299 292 302 300 307 302 301 300 301
288 289 291 292 293 294 297 298 297 297 300 300 304 308 312 311 311 307 306 302 307 308 291 300 300 295 294 299 299 299 298 298 297 298 302 297 305 306 302 297 301 305 304
288 291 291 292 295 298 300 299 297 300 303 305 307 311 310 304 305 306 305 307 302 301 308 310 299 302 305 306 305 303 303 297 295 301 303 291 293 301 304 301 301 297 299
Wind_Speed_850mb
27 27 27 28 29 29 28 27 26 24 23 22 21 21 21 19 17 18 19 26 28 31 36 43 50 55 54 54 45 36 44 45 46 52 55 53 52 55 55 54 51 48 48
35 35 35 36 36 38 37 36 35 34 34 32 28 24 20 16 15 16 19 20 24 29 31 35 39 45 49 58 59 59 47 52 50 51 43 57 58 58 59 60 59 56 53
37 38 39 40 42 43 41 38 38 38 37 38 37 29 21 16 15 19 25 26 27 27 30 36 43 42 40 50 55 57 58 49 54 52 56 45 52 61 60 63 66 64 59
39 39 41 44 44 44 46 46 46 46 47 47 45 38 27 22 21 20 32 35 40 42 41 43 45 48 51 53 54 51 49 47 48 37 42 58 49 43 60 62 66 70 65
38 39 42 44 45 49 50 53 55 56 55 53 52 43 33 33 13 36 45 42 47 52 59 58 56 54 54 59 61 57 54 55 57 55 42 44 53 49 57 61 66 72 75
37 38 41 44 48 50 53 57 59 61 63 63 59 52 37 31 12 65 42 63 48 69 72 71 69 64 60 59 61 61 59 54 64 65 55 49 56 59 55 50 54 60 76
35 38 41 43 48 52 56 58 60 66 70 74 75 70 45 20 15 64 53 56 79 80 80 82 80 77 74 69 64 63 65 65 61 64 63 73 65 69 72 70 50 52 34
33 36 39 42 43 45 49 55 61 63 66 73 76 64 45 28 89 8 87 68 87 88 88 86 86 85 82 80 76 71 68 67 68 69 68 67 70 75 75 72 74 72 56
31 34 37 39 42 45 49 53 57 60 62 62 64 59 36 35 95 36 30 96 98 102 96 91 87 86 86 83 80 76 72 72 71 72 73 71 71 72 78 79 79 81 82
27 31 35 40 44 44 47 51 52 55 58 62 61 55 50 54 49 64 87 99 106 105 105 104 102 91 85 85 81 78 78 76 76 75 76 76 71 71 74 66 71 82 84
26 30 35 39 42 45 47 49 49 50 53 54 58 60 61 60 57 61 80 114 109 105 104 102 98 101 97 89 85 83 81 80 79 76 74 72 71 73 70 70 68 68 76
25 31 35 39 42 44 46 47 49 49 50 51 53 55 56 60 65 70 84 100 100 112 112 107 103 101 98 96 91 84 80 82 79 73 70 70 70 73 72 70 70 68 67
27 30 34 37 40 44 46 48 50 51 51 52 55 56 57 61 66 72 81 94 91 111 99 111 108 102 102 97 94 88 86 80 78 70 70 73 76 74 71 70 69 69 68
30 34 36 39 42 45 48 50 53 54 54 54 55 57 62 66 71 75 78 80 94 83 102 109 110 106 97 97 93 94 86 82 75 74 82 78 76 72 69 70 69 70 68
35 38 41 42 45 47 51 54 56 59 58 58 59 61 66 72 76 80 83 80 65 84 99 123 100 108 100 98 95 86 88 83 81 80 78 76 72 70 70 69 68 69 68
39 42 43 46 48 50 53 56 59 61 64 62 64 67 70 76 82 84 85 86 82 66 79 112 116 107 95 93 82 85 83 82 83 81 74 70 69 70 70 71 70 67 70
43 45 47 49 53 54 56 60 61 65 68 67 65 70 74 78 84 87 89 89 88 70 68 105 109 106 94 88 86 81 81 86 86 78 76 81 74 70 71 72 71 72 71
48 50 51 54 56 58 59 63 66 67 71 70 69 72 77 81 84 87 88 88 86 81 66 80 106 109 95 86 90 86 72 81 91 95 87 69 74 76 78 74 72 73 71
51 52 55 57 58 60 62 65 68 71 71 70 73 76 80 82 86 86 86 86 82 75 73 75 98 103 93 91 71 73 101 91 84 80 74 83 89 81 72 70 68 66 66
53 55 57 59 61 63 66 68 70 72 72 75 76 79 81 83 84 85 83 79 70 74 78 81 87 94 82 98 89 77 80 75 105 105 101 91 88 83 74 75 75 71 70
56 57 58 61 63 66 68 70 70 73 76 78 78 80 82 83 82 78 62 68 72 77 80 81 85 96 91 76 58 87 103 100 99 89 99 96 86 93 88 80 76 68 63
57 58 60 63 66 67 68 66 68 73 75 77 80 82 83 84 83 74 61 63 63 70 80 83 88 78 103 93 85 85 92 92 106 78 89 112 87 102 98 93 80 69 66
55 59 62 65 66 66 65 66 68 71 75 76 78 82 84 83 79 79 82 66 68 62 65 76 87 86 95 85 86 103 97 90 90 85 97 122 106 111 96 90 79 67 61
57 61 63 64 66 64 63 66 67 71 74 75 78 77 79 81 77 67 70 76 81 84 77 68 64 85 94 90 85 91 99 111 117 107 88 105 96 104 93 82 75 74 72
59 60 62 62 63 63 63 65 68 72 73 76 76 76 74 75 66 61 70 83 84 80 59 85 81 73 78 89 85 87 87 82 90 87 87 89 88 81 82 93 95 80 55
58 60 60 61 62 62 61 65 66 66 72 76 80 81 63 60 60 64 70 77 81 93 96 83 88 91 83 82 77 68 68 69 75 77 78 59 85 85 64 70 54 54 66
Wind_Direction_850mb
57 49 44 38 34 32 25 23 18 15 12 2 351 343 339 338 334 325 319 304 294 290 291 292 285 280 279 276 277 287 282 290 289 287 284 281 282 286 289 292 292 289 287
56 52 50 44 37 33 29 25 21 19 16 13 8 359 355 352 349 341 333 331 324 306 306 304 298 288 286 283 267 268 271 273 282 282 301 278 278 279 281 285 287 288 287
53 47 44 40 36 30 25 24 22 18 17 20 14 9 5 355 348 353 349 345 336 332 323 308 303 300 302 289 285 278 267 267 268 273 282 295 278 274 276 279 280 282 283
49 43 41 38 33 28 24 19 16 15 15 15 17 14 8 353 350 343 350 346 343 339 334 330 323 313 312 307 303 300 292 280 273 278 282 273 279 277 268 272 274 277 276
45 38 36 32 27 24 23 21 15 11 9 10 12 15 2 354 11 8 348 345 342 341 337 334 329 325 317 308 303 306 302 292 282 272 279 285 276 280 265 265 268 270 273
40 36 32 28 24 20 19 19 17 11 9 6 3 8 10 5 18 348 345 348 347 344 342 338 333 329 326 318 309 307 306 301 294 286 279 276 269 268 276 268 261 266 269
35 31 28 25 22 18 16 14 15 13 7 4 359 360 10 12 354 341 343 349 342 344 343 342 339 336 330 326 321 315 308 305 302 293 295 279 277 274 267 267 277 258 266
31 26 24 22 19 16 14 13 13 15 14 10 9 5 353 358 339 4 340 343 341 342 342 341 340 338 334 330 327 322 315 310 305 303 303 294 285 275 275 274 267 271 266
26 22 19 16 14 11 12 11 10 9 10 11 12 16 1 338 342 330 333 337 340 340 339 337 336 337 335 330 325 322 318 314 309 306 305 303 295 291 282 275 275 270 267
17 15 11 11 9 7 6 6 5 3 2 2 1 2 358 348 341 327 321 335 333 335 335 335 335 332 329 326 324 321 319 317 314 310 305 303 303 299 293 300 291 273 272
2 2 1 1 360 359 358 356 354 353 353 352 351 348 345 342 340 323 319 328 328 330 329 329 330 328 326 323 321 319 318 314 312 311 308 305 304 300 303 300 299 295 280
350 349 350 349 349 348 349 348 346 344 343 343 341 339 337 334 330 326 320 322 321 326 326 327 329 326 324 320 317 314 312 312 310 309 308 307 306 305 303 300 297 296 294
334 334 335 336 336 337 338 339 337 336 335 334 334 331 328 326 325 324 323 320 316 322 322 323 327 324 321 317 314 315 313 309 307 306 306 303 303 304 301 299 298 295 293
316 320 324 325 327 327 328 328 331 330 328 328 327 325 323 324 324 324 322 320 317 314 318 319 322 320 317 313 311 310 311 311 307 304 304 303 303 301 299 297 296 295 293
309 310 312 314 315 317 318 320 323 324 321 321 320 320 321 323 323 322 322 321 309 304 309 319 313 317 312 310 308 310 312 311 309 309 306 305 302 300 298 297 294 294 291
298 301 303 304 306 307 309 312 314 317 317 316 315 316 319 322 323 322 321 319 315 297 296 314 313 309 308 310 308 311 310 309 307 309 307 307 301 299 297 296 294 291 289
295 297 299 300 300 301 304 305 308 312 312 311 311 313 317 319 320 319 318 317 315 306 294 306 308 309 309 314 316 313 310 310 309 310 308 306 300 299 296 293 291 290 288
287 291 294 297 297 298 300 303 305 306 309 309 309 311 314 316 317 317 316 315 314 313 302 299 308 311 310 310 314 314 311 309 307 306 307 301 299 299 301 296 290 289 287
287 288 291 295 296 296 298 300 301 302 305 307 307 308 312 314 315 315 315 315 314 314 311 301 300 305 305 312 308 302 304 308 306 310 304 301 302 305 301 295 293 291 289
287 289 290 293 295 296 296 298 298 300 305 307 305 307 310 312 313 315 314 314 314 308 303 300 299 302 303 303 310 308 310 305 301 304 306 307 307 307 302 299 297 296 294
287 289 290 294 294 294 296 297 298 303 304 303 302 305 308 311 312 312 306 305 304 304 303 301 299 301 302 306 307 305 301 305 305 308 310 307 309 307 306 304 302 302 298
288 289 291 292 292 293 294 296 300 300 301 302 304 305 307 309 312 312 301 299 296 298 298 299 301 300 298 305 305 304 303 303 303 308 305 301 302 303 305 306 308 305 299
288 289 289 290 291 293 295 297 298 299 298 301 303 304 307 311 313 312 309 303 303 301 296 297 295 298 301 304 304 304 301 298 296 299 296 295 297 299 303 303 303 300 296
287 287 289 292 293 295 296 297 297 297 299 301 302 305 309 311 312 309 310 308 303 304 309 302 296 296 297 301 300 297 296 292 291 295 299 292 302 300 307 302 301 300 301
288 289 291 292 293 294 297 298 297 297 300 300 304 308 312 311 311 307 306 302 307 308 291 300 300 295 294 299 299 299 298 298 297 298 302 297 305 306 302 297 301 305 304
288 291 291 292 295 298 300 299 297 300 303 305 307 311 310 304 305 306 305 307 302 301 308 310 299 302 305 306 305 303 303 297 295 301 303 291 293 301 304 301 301 297 299